TimeCST,TemperatureF,Dew PointF,Humidity,Sea Level PressureIn,VisibilityMPH,Wind Direction,Wind SpeedMPH,Gust SpeedMPH,PrecipitationIn,Events,Conditions,WindDirDegrees,DateUTC
12:15 AM,50.4,36.1,58,30.22,10.0,NE,4.6,-,N/A,,Clear,50,2013-02-20 06:15:00
12:35 AM,50.4,36.1,58,30.21,10.0,NE,5.8,-,N/A,,Clear,50,2013-02-20 06:35:00
12:55 AM,50.0,36.3,59,30.19,10.0,NE,8.1,-,N/A,,Clear,50,2013-02-20 06:55:00
1:15 AM,50.2,36.3,59,30.19,10.0,ENE,5.8,-,N/A,,Clear,60,2013-02-20 07:15:00
1:35 AM,50.0,36.9,61,30.18,10.0,ENE,9.2,-,N/A,,Clear,70,2013-02-20 07:35:00
1:55 AM,49.5,36.9,62,30.16,10.0,ENE,9.2,16.1,N/A,,Clear,70,2013-02-20 07:55:00
2:15 AM,49.5,35.8,59,30.18,10.0,ENE,6.9,-,N/A,,Clear,60,2013-02-20 08:15:00
2:35 AM,49.3,35.4,59,30.18,10.0,ENE,5.8,-,N/A,,Clear,60,2013-02-20 08:35:00
3:15 AM,46.8,36.7,68,30.18,10.0,East,5.8,-,N/A,,Clear,80,2013-02-20 09:15:00
3:35 AM,46.9,36.5,67,30.18,10.0,East,5.8,-,N/A,,Clear,80,2013-02-20 09:35:00
3:55 AM,47.1,36.0,65,30.17,10.0,East,4.6,-,N/A,,Clear,80,2013-02-20 09:55:00
4:15 AM,47.1,36.5,67,30.17,10.0,ENE,6.9,-,N/A,,Mostly Cloudy,70,2013-02-20 10:15:00
4:35 AM,47.5,35.8,64,30.16,10.0,East,8.1,-,N/A,,Mostly Cloudy,80,2013-02-20 10:35:00
4:55 AM,47.7,34.2,60,30.16,10.0,East,9.2,-,N/A,,Scattered Clouds,80,2013-02-20 10:55:00
5:15 AM,47.7,32.2,55,30.18,10.0,ENE,8.1,-,N/A,,Clear,70,2013-02-20 11:15:00
5:35 AM,47.7,32.4,55,30.18,10.0,ENE,5.8,-,N/A,,Clear,70,2013-02-20 11:35:00
5:55 AM,46.6,33.6,61,30.18,10.0,East,6.9,-,N/A,,Clear,80,2013-02-20 11:55:00
6:00 AM,46.4,33.8,62,30.18,10.0,East,6.9,-,N/A,,Clear,80,2013-02-20 12:00:00
6:45 AM,46.4,32.0,57,30.20,10.0,ENE,5.8,-,N/A,,Mostly Cloudy,70,2013-02-20 12:45:00
7:45 AM,48.2,30.2,50,30.19,10.0,ENE,11.5,17.3,N/A,,Mostly Cloudy,70,2013-02-20 13:45:00
8:58 AM,48.2,26.6,43,30.22,10.0,East,8.1,-,N/A,,Mostly Cloudy,100,2013-02-20 14:58:00
9:45 AM,50.0,26.6,40,30.18,10.0,East,16.1,21.9,N/A,,Mostly Cloudy,100,2013-02-20 15:45:00
10:45 AM,53.6,30.2,41,30.14,10.0,East,15.0,24.2,N/A,,Mostly Cloudy,90,2013-02-20 16:45:00
11:45 AM,55.4,30.2,38,30.16,10.0,ESE,10.4,18.4,N/A,,Mostly Cloudy,110,2013-02-20 17:45:00
12:50 PM,59.0,35.6,42,30.11,10.0,East,11.5,20.7,N/A,,Mostly Cloudy,100,2013-02-20 18:50:00
2:50 PM,60.8,39.2,45,30.06,10.0,East,13.8,19.6,N/A,,Mostly Cloudy,100,2013-02-20 20:50:00
3:50 PM,59.0,41.0,51,30.03,10.0,East,15.0,-,N/A,,Overcast,100,2013-02-20 21:50:00
5:53 PM,57.2,39.2,51,30.00,10.0,East,13.8,-,N/A,,Overcast,90,2013-02-20 23:53:00
6:57 PM,57.2,37.4,48,30.01,10.0,East,13.8,18.4,N/A,,Overcast,100,2013-02-21 00:57:00
7:57 PM,57.2,37.4,48,30.00,10.0,East,11.5,-,N/A,,Overcast,90,2013-02-21 01:57:00
8:52 PM,55.4,37.4,51,29.99,10.0,East,11.5,20.7,N/A,,Overcast,90,2013-02-21 02:52:00
9:50 PM,55.4,39.2,54,29.98,10.0,East,11.5,17.3,N/A,,Overcast,90,2013-02-21 03:50:00
10:15 PM,55.4,41.0,58,29.97,10.0,East,9.2,-,N/A,,Overcast,90,2013-02-21 04:15:00
10:35 PM,55.4,41.5,60,29.97,10.0,East,10.4,-,N/A,,Overcast,100,2013-02-21 04:35:00
10:55 PM,55.2,42.6,63,29.97,10.0,East,10.4,-,N/A,,Overcast,100,2013-02-21 04:55:00
11:15 PM,55.2,43.2,64,29.97,10.0,East,10.4,-,N/A,,Overcast,100,2013-02-21 05:15:00
11:35 PM,55.0,43.3,65,29.97,10.0,East,11.5,16.1,N/A,,Overcast,100,2013-02-21 05:35:00
11:55 PM,54.7,44.1,67,29.96,10.0,East,10.4,-,N/A,,Overcast,100,2013-02-21 05:55:00